When you browse on this site, cookies collect data to enhance your experience and personalize the content and advertising you see.
Visit our Privacy Policy to learn more. By continuing to use the site, you agree to this use of cookies and data.
  • In Denmark
  • List of Countries
  • For 7 days
  • Water Temperature
  • Satellite Maps
  • Weather Map
  • Weather Widgets
  • user-avatar
    Login

    Hourly Weather Sychevka

    Today, 23 May, Thursday

    Time Temperature Precipitation Wind Pressure Humidity
    00:00 +15°C° 0 mm 2 mps 736 mmHg 94%
    01:00 +15°C° 0 mm 2 mps 736 mmHg 94%
    02:00 +15°C° 0 mm 2 mps 736 mmHg 95%
    03:00 +15°C° 0 mm 2 mps 735 mmHg 94%
    04:00 +15°C° 0 mm 2 mps 735 mmHg 94%
    05:00 +15°C° 0 mm 2 mps 735 mmHg 94%
    06:00 +16°C° 0 mm 2 mps 735 mmHg 89%
    07:00 +18°C° 0 mm 2 mps 735 mmHg 83%
    08:00 +20°C° 0 mm 2 mps 735 mmHg 78%
    09:00 +21°C° 0 mm 2 mps 735 mmHg 72%
    10:00 +23°C° 0 mm 2 mps 735 mmHg 65%
    11:00 +24°C° 0 mm 2 mps 735 mmHg 59%
    12:00 +25°C° 0.1 mm 3 mps 735 mmHg 58%
    13:00 +25°C° 0.1 mm 3 mps 735 mmHg 56%
    14:00 +25°C° 0.1 mm 3 mps 735 mmHg 55%
    15:00 +25°C° 0.3 mm 3 mps 734 mmHg 61%
    16:00 +25°C° 0.3 mm 3 mps 734 mmHg 66%
    17:00 +24°C° 0.3 mm 2 mps 734 mmHg 71%
    18:00 +21°C° 0.1 mm 2 mps 734 mmHg 75%
    19:00 +20°C° 0.1 mm 2 mps 734 mmHg 80%
    20:00 +18°C° 0.1 mm 2 mps 734 mmHg 84%
    21:00 +17°C° 0 mm 2 mps 734 mmHg 86%
    22:00 +17°C° 0 mm 2 mps 735 mmHg 88%
    23:00 +16°C° 0 mm 2 mps 735 mmHg 90%

    Tomorrow, 24 May, Friday

    Time Temperature Precipitation Wind Pressure Humidity
    00:00 +16°C° 0 mm 2 mps 735 mmHg 91%
    01:00 +15°C° 0 mm 2 mps 735 mmHg 92%
    02:00 +15°C° 0 mm 2 mps 735 mmHg 93%
    03:00 +15°C° 0 mm 2 mps 735 mmHg 93%
    04:00 +15°C° 0 mm 1 mps 736 mmHg 93%
    05:00 +16°C° 0 mm 1 mps 736 mmHg 93%
    06:00 +17°C° 0 mm 2 mps 736 mmHg 90%
    07:00 +18°C° 0 mm 2 mps 737 mmHg 86%
    08:00 +19°C° 0 mm 2 mps 737 mmHg 83%
    09:00 +19°C° 0.1 mm 3 mps 737 mmHg 84%
    10:00 +19°C° 0.1 mm 4 mps 737 mmHg 85%
    11:00 +18°C° 0.1 mm 4 mps 737 mmHg 86%
    12:00 +18°C° 0 mm 4 mps 737 mmHg 85%
    13:00 +19°C° 0 mm 4 mps 737 mmHg 83%
    14:00 +19°C° 0 mm 4 mps 737 mmHg 82%
    15:00 +18°C° 0 mm 4 mps 737 mmHg 83%
    16:00 +18°C° 0 mm 4 mps 737 mmHg 85%
    17:00 +17°C° 0 mm 4 mps 737 mmHg 87%
    18:00 +17°C° 0 mm 4 mps 737 mmHg 89%
    19:00 +16°C° 0 mm 3 mps 737 mmHg 91%
    20:00 +14°C° 0 mm 3 mps 738 mmHg 93%
    21:00 +14°C° 0 mm 3 mps 737 mmHg 94%
    22:00 +14°C° 0 mm 3 mps 737 mmHg 94%
    23:00 +14°C° 0 mm 4 mps 737 mmHg 95%

    Day after tomorrow, 25 May, Saturday

    Time Temperature Precipitation Wind Pressure Humidity
    00:00 +14°C° 0.1 mm 4 mps 737 mmHg 95%
    01:00 +14°C° 0.1 mm 4 mps 737 mmHg 95%
    02:00 +13°C° 0.1 mm 5 mps 737 mmHg 95%
    03:00 +14°C° 0.5 mm 4 mps 737 mmHg 95%
    04:00 +14°C° 0.5 mm 4 mps 737 mmHg 95%
    05:00 +14°C° 0.5 mm 4 mps 737 mmHg 94%
    06:00 +14°C° 0.1 mm 4 mps 736 mmHg 93%
    07:00 +15°C° 0.1 mm 4 mps 736 mmHg 92%
    08:00 +15°C° 0.1 mm 4 mps 736 mmHg 91%
    09:00 +17°C° 0 mm 4 mps 736 mmHg 89%
    10:00 +18°C° 0 mm 4 mps 736 mmHg 87%
    11:00 +19°C° 0 mm 3 mps 735 mmHg 85%
    12:00 +20°C° 1.1 mm 4 mps 735 mmHg 83%
    13:00 +20°C° 1.1 mm 4 mps 735 mmHg 80%
    14:00 +21°C° 1.1 mm 4 mps 735 mmHg 78%
    15:00 +20°C° 0.6 mm 4 mps 734 mmHg 80%
    16:00 +20°C° 0.6 mm 4 mps 734 mmHg 82%
    17:00 +20°C° 0.6 mm 3 mps 733 mmHg 84%
    18:00 +19°C° 0.7 mm 3 mps 733 mmHg 86%
    19:00 +18°C° 0.7 mm 3 mps 733 mmHg 88%
    20:00 +17°C° 0.7 mm 2 mps 732 mmHg 91%
    21:00 +16°C° 0 mm 2 mps 732 mmHg 92%
    22:00 +16°C° 0 mm 2 mps 732 mmHg 93%
    23:00 +15°C° 0 mm 2 mps 732 mmHg 93%

    26 May, Sunday

    Time Temperature Precipitation Wind Pressure Humidity
    00:00 +15°C° 0 mm 2 mps 732 mmHg 94%
    01:00 +15°C° 0 mm 2 mps 732 mmHg 94%
    02:00 +14°C° 0 mm 2 mps 731 mmHg 94%
    03:00 +14°C° 0.2 mm 2 mps 731 mmHg 94%
    04:00 +15°C° 0.2 mm 2 mps 732 mmHg 94%
    05:00 +15°C° 0.2 mm 2 mps 732 mmHg 95%
    06:00 +16°C° 0.4 mm 2 mps 732 mmHg 94%
    07:00 +16°C° 0.4 mm 2 mps 732 mmHg 93%
    08:00 +17°C° 0.4 mm 2 mps 732 mmHg 92%
    09:00 +18°C° 0.2 mm 3 mps 732 mmHg 86%
    10:00 +19°C° 0.2 mm 4 mps 732 mmHg 80%
    11:00 +20°C° 0.2 mm 5 mps 732 mmHg 74%
    12:00 +21°C° 0 mm 5 mps 732 mmHg 70%
    13:00 +21°C° 0 mm 5 mps 732 mmHg 65%
    14:00 +22°C° 0 mm 5 mps 732 mmHg 61%
    15:00 +21°C° 0 mm 4 mps 732 mmHg 64%
    16:00 +21°C° 0 mm 4 mps 732 mmHg 66%
    17:00 +20°C° 0 mm 3 mps 733 mmHg 69%
    18:00 +19°C° 0 mm 3 mps 733 mmHg 72%
    19:00 +17°C° 0 mm 3 mps 733 mmHg 76%
    20:00 +14°C° 0 mm 3 mps 733 mmHg 80%
    21:00 +13°C° 0 mm 3 mps 733 mmHg 83%
    22:00 +13°C° 0 mm 2 mps 733 mmHg 86%
    23:00 +12°C° 0 mm 2 mps 733 mmHg 88%

    27 May, Monday

    Time Temperature Precipitation Wind Pressure Humidity
    00:00 +12°C° 0 mm 2 mps 733 mmHg 89%
    01:00 +11°C° 0 mm 3 mps 733 mmHg 89%
    02:00 +11°C° 0 mm 3 mps 732 mmHg 90%
    03:00 +11°C° 2 mm 4 mps 732 mmHg 92%
    04:00 +11°C° 2 mm 4 mps 732 mmHg 93%
    05:00 +12°C° 2 mm 5 mps 732 mmHg 95%
    06:00 +11°C° 0.3 mm 6 mps 733 mmHg 90%
    07:00 +11°C° 0.3 mm 6 mps 733 mmHg 85%
    08:00 +11°C° 0.3 mm 7 mps 733 mmHg 80%
    09:00 +11°C° 0.8 mm 7 mps 733 mmHg 79%
    10:00 +11°C° 0.8 mm 8 mps 734 mmHg 78%
    11:00 +11°C° 0.8 mm 8 mps 734 mmHg 76%
    12:00 +12°C° 0.5 mm 8 mps 735 mmHg 73%
    13:00 +12°C° 0.5 mm 8 mps 735 mmHg 70%
    14:00 +13°C° 0.5 mm 8 mps 736 mmHg 68%
    15:00 +14°C° 0.1 mm 7 mps 736 mmHg 67%
    16:00 +14°C° 0.1 mm 7 mps 737 mmHg 67%
    17:00 +14°C° 0.1 mm 6 mps 737 mmHg 67%
    18:00 +13°C° 0 mm 6 mps 738 mmHg 71%
    19:00 +12°C° 0 mm 5 mps 738 mmHg 75%
    20:00 +10°C° 0 mm 4 mps 739 mmHg 78%
    21:00 +10°C° 0 mm 4 mps 739 mmHg 81%
    22:00 +8°C° 0 mm 4 mps 740 mmHg 84%
    23:00 +8°C° 0 mm 4 mps 740 mmHg 87%

    28 May, Tuesday

    Time Temperature Precipitation Wind Pressure Humidity
    00:00 +7°C° 0 mm 4 mps 741 mmHg 90%
    01:00 +8°C° 0 mm 3 mps 741 mmHg 92%
    02:00 +7°C° 0 mm 3 mps 742 mmHg 94%
    03:00 +8°C° 0 mm 3 mps 742 mmHg 93%
    04:00 +8°C° 0 mm 3 mps 742 mmHg 92%
    05:00 +9°C° 0 mm 3 mps 743 mmHg 91%
    06:00 +11°C° 0 mm 3 mps 743 mmHg 86%
    07:00 +13°C° 0 mm 3 mps 743 mmHg 81%
    08:00 +14°C° 0 mm 4 mps 743 mmHg 75%
    09:00 +17°C° 0 mm 4 mps 743 mmHg 72%
    10:00 +18°C° 0 mm 4 mps 743 mmHg 68%
    11:00 +19°C° 0 mm 4 mps 744 mmHg 64%
    12:00 +20°C° 0 mm 4 mps 743 mmHg 64%
    13:00 +20°C° 0 mm 4 mps 743 mmHg 63%
    14:00 +21°C° 0 mm 4 mps 743 mmHg 63%
    15:00 +21°C° 0 mm 4 mps 743 mmHg 67%
    16:00 +20°C° 0 mm 3 mps 743 mmHg 71%
    17:00 +20°C° 0 mm 3 mps 743 mmHg 75%
    18:00 +19°C° 0 mm 3 mps 743 mmHg 78%
    19:00 +17°C° 0 mm 3 mps 743 mmHg 82%
    20:00 +16°C° 0 mm 3 mps 743 mmHg 85%
    21:00 +16°C° 0 mm 3 mps 743 mmHg 84%
    22:00 +16°C° 0 mm 3 mps 743 mmHg 84%
    23:00 +16°C° 0 mm 3 mps 744 mmHg 83%
    Show more